Location: Long Geng
(2.6167°N, 114.1333°E)
Time: 05:32:31
(UTC+00:00)

Cosmos 2219 Rocket - Pass Details

Date: 14 May 2021
Orbit: 827 x 847 km, 71.0° (Epoch: 13 June)

Event Time Altitude Azimuth Distance (km) Brightness Sun altitude
Exits shadow 20:02:27 39° 132° (SE) 1,224 3.1 -31.2°
Maximum altitude 20:03:26 43° 105° (ESE) 1,157 3.1 -31.0°
Drops below altitude 10° 20:08:43 10° 34° (NE) 2,449 5.3 -29.8°
Sets 20:11:16 0° 28° (NNE) 3,384 6.1 -29.2°
